Location: LDNL
(36.4545°S, 141.6685°E)
Time: 04:24:27
(UTC+11:00)

Vanguard 2 - Pass Details

Date: 16 August 2022
Orbit: 552 x 2934 km, 32.9° (Epoch: 06 October)

Event Time Altitude Azimuth Distance (km) Brightness Sun altitude
Rises 15:56:47 0° 303° (WNW) 6,636 13.9 21.3°
Reaches altitude 10° 16:01:09 10° 306° (NW) 5,722 14.3 20.6°
Maximum altitude 16:18:41 62° 20° (NNE) 2,997 10.9 17.7°
Drops below altitude 10° 16:32:35 10° 96° (E) 4,659 11.0 15.4°
Sets 16:35:43 0° 99° (E) 5,390 11.3 14.8°
